Tracking 27419 objects as of 9-Jun-2023
HD Live streaming from Space Station
objects crossing your sky now

DELTA 1 DEB

Track DELTA 1 DEB now!
10-day predictions


NORAD ID: 9681
Int'l Code: 1975-004GC
Perigee: 718.6 km
Apogee: 799.7 km
Inclination: 98.1 °
Period: 99.9 minutes
Semi major axis: 7130 km
RCS: 0.0088 m2 (small)
Launch date: January 22, 1975
Source: United States (US)
Launch site: AIR FORCE WESTERN TEST RANGE (AFWTR)

Note: This is SATELLITE DEBRIS
Your satellite tracking list
Your tracking list is empty




NASA's NSSDC Master Catalog

Two Line Element Set (TLE):
1  9681U 75004GC  23159.55970259  .00000324  00000-0  10929-3 0  9995
2  9681  98.0511 267.2166 0056881  49.4654 311.1471 14.41961828484772
Source of the keplerian elements: AFSPC